Weather History for Rexburg, ID

Change the Weather History Date:

Thursday, August 1, 2013

  Actual Average Record
Temperature  
Mean Temperature 74 °F 69 °F  
Max Temperature 91 °F 87 °F 94 °F (2004)
Min Temperature 56 °F 52 °F 40 °F (2001)
Degree Days  
Heating Degree Days 0 0  
Month to date heating degree days 0 0  
Since 1 June heating degree days 117 202  
Since 1 July heating degree days 0 30  
Cooling Degree Days 9 4  
Month to date cooling degree days 9 4  
Year to date cooling degree days 263 118  
Since 1 June cooling degree days 261 114  
Growing Degree Days 22 (Base 50)    
Moisture  
Dew Point 46 °F    
Average Humidity 49    
Maximum Humidity 83    
Minimum Humidity 14    
Precipitation  
Precipitation 0.00 in 0.02 in 0.59 in (2011)
Month to date precipitation 0.00 0.02  
Year to date precipitation 5.12 7.98  
Sea Level Pressure  
Sea Level Pressure 29.83 in    
Wind  
Wind Speed 7 mph (WNW)    
Max Wind Speed 22 mph    
Max Gust Speed 28 mph    
Visibility 10 miles    
Events Thunderstorm    
T = Trace of Precipitation, MM = Missing Value Source: NWS Daily Summary

Daily Weather History Graph

Daily Weather History Graph

Search for Another Location

Airport:

Trip Planner

Search our weather history database for the weather conditions in past years. The results will help you decide how hot, cold, wet, or windy it might be!

Date:

Astronomy

Aug. 01, 2013 Rise Set
Actual Time 6:16 AM MDT 8:50 PM MDT
Civil Twilight 5:43 AM MDT 9:22 PM MDT
Nautical Twilight 5:02 AM MDT 10:03 PM MDT
Astronomical Twilight 4:15 AM MDT 10:50 PM MDT
Moon 1:54 AM MDT (8/1) 5:03 PM MDT (8/1)
Length of Visible Light 15h 39m
Length of Day
14h 33m
Waning Crescent, 23% of the Moon is Illuminated
Aug 1
Waning Crescent
Aug 6
New
Aug 14
First Quarter
Aug 20
Full
Aug 28
Last Quarter

Hourly Weather History & Observations

Time (MDT) Temp. Dew Point Humidity Pressure Visibility Wind Dir Wind Speed Gust Speed Precip Events Conditions
12:53 AM 63.0 °F 53.1 °F 70% 29.99 in 10.0 mi North 6.9 mph - N/A   Mostly Cloudy
1:53 AM 66.9 °F 46.9 °F 49% 29.93 in 10.0 mi SE 9.2 mph 16.1 mph N/A   Unknown
2:53 AM 62.1 °F 50.0 °F 65% 29.90 in 10.0 mi North 8.1 mph - N/A   Clear
3:25 AM 60.8 °F 51.8 °F 72% 30.06 in 10.0 mi NNE 6.9 mph - N/A Thunderstorm Clear
3:40 AM 59.0 °F 51.8 °F 77% 30.05 in 10.0 mi NE 4.6 mph - N/A   Clear
3:53 AM 59.0 °F 51.1 °F 75% 29.89 in 10.0 mi NE 5.8 mph - N/A   Clear
4:53 AM 57.0 °F 52.0 °F 83% 29.89 in 10.0 mi North 4.6 mph - N/A   Clear
5:53 AM 57.0 °F 50.0 °F 77% 29.89 in 10.0 mi NE 5.8 mph - N/A   Clear
6:53 AM 55.9 °F 50.0 °F 80% 29.90 in 10.0 mi NE 4.6 mph - N/A   Clear
7:53 AM 57.9 °F 51.1 °F 78% 29.89 in 10.0 mi Calm Calm - N/A   Clear
8:53 AM 63.0 °F 52.0 °F 67% 29.89 in 10.0 mi NE 4.6 mph - N/A   Clear
9:53 AM 71.1 °F 53.1 °F 53% 29.86 in 10.0 mi Calm Calm - N/A   Clear
10:53 AM 78.1 °F 53.1 °F 42% 29.85 in 10.0 mi NNW 4.6 mph - N/A   Clear
11:53 AM 82.0 °F 46.9 °F 29% 29.83 in 10.0 mi SW 5.8 mph - N/A   Clear
12:53 PM 84.9 °F 46.0 °F 26% 29.81 in 10.0 mi WSW 9.2 mph - N/A   Clear
1:53 PM 86.0 °F 43.0 °F 22% 29.77 in 10.0 mi West 10.4 mph - N/A   Clear
2:53 PM 90.0 °F 33.1 °F 13% 29.76 in 10.0 mi WSW 19.6 mph 26.5 mph N/A   Clear
3:53 PM 90.0 °F 35.1 °F 14% 29.74 in 10.0 mi West 17.3 mph 24.2 mph N/A   Clear
4:53 PM 90.0 °F 33.1 °F 13% 29.72 in 10.0 mi WSW 11.5 mph 19.6 mph N/A   Clear
5:53 PM 90.0 °F 34.0 °F 14% 29.70 in 10.0 mi SW 13.8 mph - N/A   Clear
6:53 PM 84.0 °F 42.1 °F 23% 29.71 in 10.0 mi WSW 6.9 mph - N/A   Clear
7:53 PM 81.0 °F 42.1 °F 25% 29.70 in 10.0 mi SSW 4.6 mph - N/A   Clear
8:53 PM 77.0 °F 43.0 °F 30% 29.70 in 10.0 mi SW 6.9 mph - N/A   Clear
9:53 PM 71.1 °F 46.0 °F 41% 29.73 in 10.0 mi Calm Calm - N/A   Clear
10:53 PM 69.1 °F 41.0 °F 36% 29.73 in 10.0 mi South 5.8 mph - N/A   Clear
11:53 PM 64.0 °F 43.0 °F 46% 29.77 in 10.0 mi West 4.6 mph - N/A   Partly Cloudy